Time,TemperatureF,DewpointF,PressureIn,WindDirection,WindDirectionDegrees,WindSpeedMPH,WindSpeedGustMPH,Humidity,HourlyPrecipIn,Conditions,Clouds,dailyrainin,SoftwareType,DateUTC
2013-10-30 00:01:00,35.1,25.9,30.17,NNW,344,0.0,0.0,69,0.00,,,0.00,meteohub,2013-10-30 04:01:00,
2013-10-30 00:02:00,35.1,25.9,30.17,NNW,344,0.0,0.0,69,0.00,,,0.00,meteohub,2013-10-30 04:02:00,
2013-10-30 00:03:00,35.1,25.9,30.17,NNW,344,0.0,0.0,69,0.00,,,0.00,meteohub,2013-10-30 04:03:00,
2013-10-30 00:07:00,35.1,26.2,30.17,NNW,344,0.0,0.0,70,0.00,,,0.00,meteohub,2013-10-30 04:07:00,
2013-10-30 00:09:00,35.1,26.2,30.17,NNW,344,0.0,0.0,70,0.00,,,0.00,meteohub,2013-10-30 04:09:00,
2013-10-30 00:14:00,35.1,26.6,30.17,NNW,344,0.0,0.0,71,0.00,,,0.00,meteohub,2013-10-30 04:14:00,
2013-10-30 00:20:00,35.1,26.6,30.17,NNW,344,0.0,0.0,71,0.00,,,0.00,meteohub,2013-10-30 04:20:00,
2013-10-30 00:25:00,35.1,26.6,30.17,NNW,344,0.0,0.0,71,0.00,,,0.00,meteohub,2013-10-30 04:25:00,
2013-10-30 00:30:00,35.1,27.0,30.17,NNW,344,0.0,0.0,72,0.00,,,0.00,meteohub,2013-10-30 04:30:00,
2013-10-30 00:35:00,35.1,27.0,30.17,NNW,344,0.0,0.0,72,0.00,,,0.00,meteohub,2013-10-30 04:35:00,
2013-10-30 00:40:00,35.1,27.3,30.17,NNW,344,0.0,0.0,73,0.00,,,0.00,meteohub,2013-10-30 04:40:00,
2013-10-30 00:45:00,35.1,27.7,30.17,NNW,344,0.0,0.0,74,0.00,,,0.00,meteohub,2013-10-30 04:45:00,
2013-10-30 00:50:00,35.1,27.7,30.17,NNW,344,0.0,0.0,74,0.00,,,0.00,meteohub,2013-10-30 04:50:00,
2013-10-30 00:55:00,34.9,27.5,30.17,NNW,344,0.0,0.0,74,0.00,,,0.00,meteohub,2013-10-30 04:55:00,
2013-10-30 01:01:00,34.5,27.1,30.17,NNW,344,0.0,0.0,74,0.00,,,0.00,meteohub,2013-10-30 05:01:00,
2013-10-30 01:06:00,34.5,27.5,30.17,NNW,344,0.0,0.0,75,0.00,,,0.00,meteohub,2013-10-30 05:06:00,
2013-10-30 01:11:00,34.3,27.3,30.17,NNW,344,0.0,0.0,75,0.00,,,0.00,meteohub,2013-10-30 05:11:00,
2013-10-30 01:16:00,34.3,27.3,30.17,NNW,344,0.0,0.0,75,0.00,,,0.00,meteohub,2013-10-30 05:16:00,
2013-10-30 01:21:00,34.5,27.7,30.14,NNW,344,0.0,0.0,76,0.00,,,0.00,meteohub,2013-10-30 05:21:00,
2013-10-30 01:26:00,34.5,27.7,30.14,NNW,344,0.0,0.0,76,0.00,,,0.00,meteohub,2013-10-30 05:26:00,
2013-10-30 01:31:00,34.5,28.0,30.14,NNW,344,0.0,2.0,77,0.00,,,0.00,meteohub,2013-10-30 05:31:00,
2013-10-30 01:37:00,34.5,28.4,30.14,NNW,344,0.0,3.0,78,0.00,,,0.00,meteohub,2013-10-30 05:37:00,
2013-10-30 01:42:00,34.5,28.4,30.14,NNW,345,0.0,3.0,78,0.00,,,0.00,meteohub,2013-10-30 05:42:00,
2013-10-30 01:47:00,34.5,28.4,30.14,NNW,344,0.0,2.0,78,0.00,,,0.00,meteohub,2013-10-30 05:47:00,
2013-10-30 01:52:00,34.3,28.2,30.14,NNW,343,0.0,0.0,78,0.00,,,0.00,meteohub,2013-10-30 05:52:00,
2013-10-30 01:57:00,34.3,28.2,30.14,NNW,344,0.0,0.0,78,0.00,,,0.00,meteohub,2013-10-30 05:57:00,
2013-10-30 02:02:00,34.3,28.2,30.14,NNW,344,0.0,0.0,78,0.00,,,0.00,meteohub,2013-10-30 06:02:00,
2013-10-30 02:07:00,34.5,28.8,30.14,NNW,344,0.0,0.0,79,0.00,,,0.00,meteohub,2013-10-30 06:07:00,
2013-10-30 02:13:00,34.5,28.8,30.14,NNW,344,0.0,0.0,79,0.00,,,0.00,meteohub,2013-10-30 06:13:00,
2013-10-30 02:18:00,34.7,28.9,30.14,NNW,344,0.0,0.0,79,0.00,,,0.00,meteohub,2013-10-30 06:18:00,
2013-10-30 02:23:00,34.7,28.9,30.14,NNW,345,0.0,0.0,79,0.00,,,0.00,meteohub,2013-10-30 06:23:00,
2013-10-30 02:28:00,34.7,29.1,30.14,NNW,344,0.0,0.0,80,0.00,,,0.00,meteohub,2013-10-30 06:28:00,
2013-10-30 02:33:00,34.9,29.3,30.14,NNW,344,0.0,0.0,80,0.00,,,0.00,meteohub,2013-10-30 06:33:00,
2013-10-30 02:38:00,34.9,29.3,30.14,NNW,344,0.0,0.0,80,0.00,,,0.00,meteohub,2013-10-30 06:38:00,
2013-10-30 02:43:00,35.1,29.8,30.14,NNW,345,0.0,0.0,81,0.00,,,0.00,meteohub,2013-10-30 06:43:00,
2013-10-30 02:49:00,35.1,29.8,30.14,NNW,344,0.0,0.0,81,0.00,,,0.00,meteohub,2013-10-30 06:49:00,
2013-10-30 02:54:00,35.4,30.6,30.14,NNW,344,0.0,0.0,82,0.00,,,0.00,meteohub,2013-10-30 06:54:00,
2013-10-30 02:59:00,35.4,30.6,30.14,NNW,344,0.0,0.0,82,0.00,,,0.00,meteohub,2013-10-30 06:59:00,
2013-10-30 03:04:00,35.4,30.6,30.14,NNW,344,0.0,0.0,82,0.00,,,0.00,meteohub,2013-10-30 07:04:00,
2013-10-30 03:09:00,35.6,30.7,30.14,NNW,344,0.0,0.0,82,0.00,,,0.00,meteohub,2013-10-30 07:09:00,
2013-10-30 03:15:00,35.6,30.7,30.14,NNW,344,0.0,0.0,82,0.00,,,0.00,meteohub,2013-10-30 07:15:00,
2013-10-30 03:20:00,36.0,30.9,30.14,NNW,344,0.0,0.0,82,0.00,,,0.00,meteohub,2013-10-30 07:20:00,
2013-10-30 03:25:00,36.1,31.5,30.14,NNW,344,0.0,0.0,83,0.00,,,0.00,meteohub,2013-10-30 07:25:00,
2013-10-30 03:30:00,36.3,31.6,30.14,NNW,344,0.0,0.0,83,0.00,,,0.00,meteohub,2013-10-30 07:30:00,
2013-10-30 03:35:00,36.5,31.8,30.14,NNW,344,0.0,0.0,83,0.00,,,0.00,meteohub,2013-10-30 07:35:00,
2013-10-30 03:40:00,36.7,32.0,30.14,NNW,344,0.0,0.0,83,0.00,,,0.00,meteohub,2013-10-30 07:40:00,
2013-10-30 03:46:00,36.7,32.0,30.14,NNW,344,0.0,0.0,83,0.00,,,0.00,meteohub,2013-10-30 07:46:00,
2013-10-30 03:51:00,36.9,32.2,30.14,NNW,344,0.0,0.0,83,0.00,,,0.00,meteohub,2013-10-30 07:51:00,
2013-10-30 03:56:00,36.9,32.2,30.14,NNW,344,0.0,0.0,83,0.00,,,0.00,meteohub,2013-10-30 07:56:00,
2013-10-30 04:01:00,36.9,32.2,30.14,NNW,344,2.0,0.0,83,0.00,,,0.00,meteohub,2013-10-30 08:01:00,
2013-10-30 04:06:00,36.7,32.0,30.11,NNW,344,0.0,3.0,83,0.00,,,0.00,meteohub,2013-10-30 08:06:00,
2013-10-30 04:11:00,36.7,32.0,30.11,NNW,344,0.0,3.0,83,0.00,,,0.00,meteohub,2013-10-30 08:11:00,
2013-10-30 04:16:00,36.5,31.8,30.11,NNW,344,0.0,3.0,83,0.00,,,0.00,meteohub,2013-10-30 08:16:00,
2013-10-30 04:21:00,36.3,31.6,30.11,NNW,344,0.0,0.0,83,0.00,,,0.00,meteohub,2013-10-30 08:21:00,
2013-10-30 04:26:00,36.5,31.8,30.11,NNW,344,0.0,0.0,83,0.00,,,0.00,meteohub,2013-10-30 08:26:00,
2013-10-30 04:32:00,36.5,31.8,30.11,NNW,344,0.0,0.0,83,0.00,,,0.00,meteohub,2013-10-30 08:32:00,
2013-10-30 04:37:00,36.9,32.2,30.11,NNW,344,0.0,0.0,83,0.00,,,0.00,meteohub,2013-10-30 08:37:00,
2013-10-30 04:42:00,37.0,32.4,30.11,NNW,344,0.0,0.0,83,0.00,,,0.00,meteohub,2013-10-30 08:42:00,
2013-10-30 04:47:00,37.4,32.7,30.11,NNW,344,0.0,0.0,83,0.00,,,0.00,meteohub,2013-10-30 08:47:00,
2013-10-30 04:52:00,37.8,33.1,30.11,NNW,344,0.0,0.0,83,0.00,,,0.00,meteohub,2013-10-30 08:52:00,
2013-10-30 04:57:00,37.9,33.3,30.11,NNW,344,0.0,0.0,83,0.00,,,0.00,meteohub,2013-10-30 08:57:00,
2013-10-30 05:02:00,38.1,33.4,30.11,NNW,344,0.0,0.0,83,0.00,,,0.00,meteohub,2013-10-30 09:02:00,
2013-10-30 05:07:00,38.3,33.6,30.11,NNW,344,0.0,0.0,83,0.00,,,0.00,meteohub,2013-10-30 09:07:00,
2013-10-30 05:12:00,38.5,33.8,30.11,NNW,344,0.0,0.0,83,0.00,,,0.00,meteohub,2013-10-30 09:12:00,
2013-10-30 05:17:00,38.5,33.8,30.11,NNW,344,0.0,0.0,83,0.00,,,0.00,meteohub,2013-10-30 09:17:00,
2013-10-30 05:22:00,38.7,34.0,30.11,NNW,344,0.0,0.0,83,0.00,,,0.00,meteohub,2013-10-30 09:22:00,
2013-10-30 05:27:00,38.7,34.0,30.11,NNW,344,0.0,0.0,83,0.00,,,0.00,meteohub,2013-10-30 09:27:00,
2013-10-30 05:32:00,38.8,34.2,30.11,NNW,344,0.0,0.0,83,0.00,,,0.00,meteohub,2013-10-30 09:32:00,
2013-10-30 05:37:00,38.8,34.2,30.11,NNW,344,0.0,0.0,83,0.00,,,0.00,meteohub,2013-10-30 09:37:00,
2013-10-30 05:42:00,38.8,33.8,30.11,NNW,344,0.0,0.0,82,0.00,,,0.00,meteohub,2013-10-30 09:42:00,
2013-10-30 05:47:00,38.7,33.6,30.11,NNW,344,0.0,0.0,82,0.00,,,0.00,meteohub,2013-10-30 09:47:00,
2013-10-30 05:52:00,38.5,33.4,30.11,NNW,344,0.0,0.0,82,0.00,,,0.00,meteohub,2013-10-30 09:52:00,
2013-10-30 05:57:00,38.5,33.4,30.11,NNW,344,0.0,0.0,82,0.00,,,0.00,meteohub,2013-10-30 09:57:00,
2013-10-30 06:02:00,38.1,33.1,30.11,NNW,344,0.0,0.0,82,0.00,,,0.00,meteohub,2013-10-30 10:02:00,
2013-10-30 06:07:00,38.1,33.1,30.11,NNW,344,0.0,0.0,82,0.00,,,0.00,meteohub,2013-10-30 10:07:00,
2013-10-30 06:12:00,38.1,33.1,30.11,NNW,344,0.0,0.0,82,0.00,,,0.00,meteohub,2013-10-30 10:12:00,
2013-10-30 06:17:00,38.1,33.1,30.11,NNW,344,0.0,0.0,82,0.00,,,0.00,meteohub,2013-10-30 10:17:00,
2013-10-30 06:22:00,38.1,33.1,30.11,NNW,344,0.0,0.0,82,0.00,,,0.00,meteohub,2013-10-30 10:22:00,
2013-10-30 06:27:00,38.3,33.3,30.11,NNW,344,0.0,0.0,82,0.00,,,0.00,meteohub,2013-10-30 10:27:00,
2013-10-30 06:32:00,38.5,33.4,30.11,NNW,344,0.0,0.0,82,0.00,,,0.00,meteohub,2013-10-30 10:32:00,
2013-10-30 06:37:00,38.7,33.6,30.11,NNW,344,0.0,0.0,82,0.00,,,0.00,meteohub,2013-10-30 10:37:00,
2013-10-30 06:42:00,38.8,34.2,30.11,NNW,344,0.0,0.0,83,0.00,,,0.00,meteohub,2013-10-30 10:42:00,
2013-10-30 06:47:00,39.2,34.2,30.11,NNW,344,0.0,0.0,82,0.00,,,0.00,meteohub,2013-10-30 10:47:00,
2013-10-30 06:52:00,39.4,34.3,30.11,NNW,344,0.0,0.0,82,0.00,,,0.00,meteohub,2013-10-30 10:52:00,
2013-10-30 06:57:00,39.4,34.3,30.11,NNW,344,0.0,0.0,82,0.00,,,0.00,meteohub,2013-10-30 10:57:00,
2013-10-30 07:02:00,39.6,34.5,30.11,NNW,344,0.0,0.0,82,0.00,,,0.00,meteohub,2013-10-30 11:02:00,
2013-10-30 07:07:00,39.7,34.7,30.11,NNW,344,0.0,0.0,82,0.00,,,0.00,meteohub,2013-10-30 11:07:00,
2013-10-30 07:12:00,39.9,34.9,30.11,NNW,344,0.0,0.0,82,0.00,,,0.00,meteohub,2013-10-30 11:12:00,
2013-10-30 07:17:00,40.1,35.1,30.11,NNW,344,0.0,0.0,82,0.00,,,0.00,meteohub,2013-10-30 11:17:00,
2013-10-30 07:22:00,40.1,35.1,30.11,NNW,344,0.0,0.0,82,0.00,,,0.00,meteohub,2013-10-30 11:22:00,
2013-10-30 07:28:00,40.1,34.7,30.11,NNW,344,0.0,0.0,81,0.00,,,0.00,meteohub,2013-10-30 11:28:00,
2013-10-30 07:33:00,40.1,34.7,30.11,NNW,344,0.0,0.0,81,0.00,,,0.00,meteohub,2013-10-30 11:33:00,
2013-10-30 07:38:00,40.3,34.9,30.11,NNW,344,0.0,0.0,81,0.00,,,0.00,meteohub,2013-10-30 11:38:00,
2013-10-30 07:43:00,40.3,34.9,30.11,NNW,344,0.0,0.0,81,0.00,,,0.00,meteohub,2013-10-30 11:43:00,
2013-10-30 07:48:00,40.5,34.7,30.11,NNW,344,0.0,0.0,80,0.00,,,0.00,meteohub,2013-10-30 11:48:00,
2013-10-30 07:53:00,40.5,34.7,30.11,NNW,344,0.0,0.0,80,0.00,,,0.00,meteohub,2013-10-30 11:53:00,
2013-10-30 07:58:00,40.6,34.9,30.11,NNW,344,0.0,0.0,80,0.00,,,0.00,meteohub,2013-10-30 11:58:00,
2013-10-30 08:03:00,40.6,34.9,30.11,NNW,344,0.0,0.0,80,0.00,,,0.00,meteohub,2013-10-30 12:03:00,
2013-10-30 08:09:00,40.8,35.1,30.11,NNW,344,0.0,0.0,80,0.00,,,0.00,meteohub,2013-10-30 12:09:00,
2013-10-30 08:14:00,41.0,35.2,30.11,NNW,344,0.0,0.0,80,0.00,,,0.00,meteohub,2013-10-30 12:14:00,
2013-10-30 08:19:00,41.0,35.1,30.11,NNW,344,0.0,0.0,79,0.00,,,0.00,meteohub,2013-10-30 12:19:00,
2013-10-30 08:24:00,41.2,34.9,30.11,NNW,344,0.0,0.0,78,0.00,,,0.00,meteohub,2013-10-30 12:24:00,
2013-10-30 08:29:00,41.4,35.1,30.11,NNW,345,0.0,0.0,78,0.00,,,0.00,meteohub,2013-10-30 12:29:00,
2013-10-30 08:34:00,41.9,35.6,30.11,NNW,344,0.0,0.0,78,0.00,,,0.00,meteohub,2013-10-30 12:34:00,
2013-10-30 08:39:00,42.4,36.1,30.11,NNW,344,0.0,0.0,78,0.00,,,0.00,meteohub,2013-10-30 12:39:00,
2013-10-30 08:44:00,43.0,36.3,30.11,NNW,344,0.0,0.0,77,0.00,,,0.00,meteohub,2013-10-30 12:44:00,
2013-10-30 08:49:00,43.3,36.7,30.11,NNW,344,0.0,0.0,77,0.00,,,0.00,meteohub,2013-10-30 12:49:00,
2013-10-30 08:55:00,43.5,36.9,30.11,NNW,344,0.0,0.0,77,0.00,,,0.00,meteohub,2013-10-30 12:55:00,
2013-10-30 09:00:00,43.9,36.9,30.11,NNW,344,0.0,0.0,76,0.00,,,0.00,meteohub,2013-10-30 13:00:00,
2013-10-30 09:05:00,43.7,36.3,30.11,NNW,344,0.0,4.0,75,0.00,,,0.00,meteohub,2013-10-30 13:05:00,
2013-10-30 09:10:00,44.1,36.7,30.11,NNW,344,0.0,4.0,75,0.00,,,0.00,meteohub,2013-10-30 13:10:00,
2013-10-30 09:15:00,44.4,37.0,30.11,NNW,344,0.0,0.0,75,0.00,,,0.00,meteohub,2013-10-30 13:15:00,
2013-10-30 09:20:00,45.1,37.8,30.11,NNW,344,0.0,0.0,75,0.00,,,0.00,meteohub,2013-10-30 13:20:00,
2013-10-30 09:25:00,45.9,38.1,30.11,NNW,344,0.0,0.0,74,0.00,,,0.00,meteohub,2013-10-30 13:25:00,
2013-10-30 09:30:00,46.4,38.5,30.11,NNW,344,0.0,0.0,74,0.00,,,0.00,meteohub,2013-10-30 13:30:00,
2013-10-30 09:35:00,46.8,38.8,30.11,NNW,344,0.0,0.0,74,0.00,,,0.00,meteohub,2013-10-30 13:35:00,
2013-10-30 09:40:00,46.9,38.7,30.11,NNW,344,0.0,0.0,73,0.00,,,0.00,meteohub,2013-10-30 13:40:00,
2013-10-30 09:46:00,47.3,39.0,30.11,NNW,344,0.0,0.0,73,0.00,,,0.00,meteohub,2013-10-30 13:46:00,
2013-10-30 09:51:00,47.7,39.0,30.11,NNW,344,0.0,0.0,72,0.00,,,0.00,meteohub,2013-10-30 13:51:00,
2013-10-30 09:56:00,48.0,39.4,30.11,NNW,344,0.0,0.0,72,0.00,,,0.00,meteohub,2013-10-30 13:56:00,
2013-10-30 10:01:00,48.4,39.4,30.11,NNW,344,0.0,0.0,71,0.00,,,0.00,meteohub,2013-10-30 14:01:00,
2013-10-30 10:06:00,48.7,39.4,30.11,NNW,344,0.0,0.0,70,0.00,,,0.00,meteohub,2013-10-30 14:06:00,
2013-10-30 10:11:00,49.3,39.9,30.11,NNW,344,0.0,0.0,70,0.00,,,0.00,meteohub,2013-10-30 14:11:00,
2013-10-30 10:16:00,50.0,40.6,30.11,NNW,344,0.0,3.0,70,0.00,,,0.00,meteohub,2013-10-30 14:16:00,
2013-10-30 10:21:00,50.4,40.6,30.11,NNW,344,0.0,3.0,69,0.00,,,0.00,meteohub,2013-10-30 14:21:00,
2013-10-30 10:26:00,50.9,41.2,30.11,SE,144,0.0,4.0,69,0.00,,,0.00,meteohub,2013-10-30 14:26:00,
2013-10-30 10:31:00,51.3,41.4,30.11,SW,220,0.0,4.0,69,0.00,,,0.00,meteohub,2013-10-30 14:31:00,
2013-10-30 10:36:00,51.4,41.2,30.11,SSW,194,0.0,4.0,68,0.00,,,0.00,meteohub,2013-10-30 14:36:00,
2013-10-30 10:41:00,52.0,41.7,30.11,WNW,301,0.0,2.0,68,0.00,,,0.00,meteohub,2013-10-30 14:41:00,
2013-10-30 10:46:00,52.2,41.9,30.11,SE,139,0.0,2.0,68,0.00,,,0.00,meteohub,2013-10-30 14:46:00,
2013-10-30 10:52:00,52.3,42.1,30.11,SE,139,0.0,2.0,68,0.00,,,0.00,meteohub,2013-10-30 14:52:00,
2013-10-30 10:57:00,52.2,41.5,30.11,SE,139,0.0,0.0,67,0.00,,,0.00,meteohub,2013-10-30 14:57:00,
2013-10-30 11:02:00,52.0,41.4,30.11,SE,139,0.0,0.0,67,0.00,,,0.00,meteohub,2013-10-30 15:02:00,
2013-10-30 11:07:00,52.0,41.7,30.11,SE,139,0.0,0.0,68,0.00,,,0.00,meteohub,2013-10-30 15:07:00,
2013-10-30 11:12:00,52.2,41.9,30.11,SE,139,0.0,0.0,68,0.00,,,0.00,meteohub,2013-10-30 15:12:00,
2013-10-30 11:17:00,52.0,41.7,30.11,SE,139,0.0,0.0,68,0.00,,,0.00,meteohub,2013-10-30 15:17:00,
2013-10-30 11:22:00,52.0,41.7,30.11,SE,139,0.0,0.0,68,0.00,,,0.00,meteohub,2013-10-30 15:22:00,
2013-10-30 11:27:00,51.8,41.9,30.11,SE,139,0.0,0.0,69,0.00,,,0.00,meteohub,2013-10-30 15:27:00,
2013-10-30 11:32:00,51.8,41.9,30.11,SE,139,0.0,0.0,69,0.00,,,0.00,meteohub,2013-10-30 15:32:00,
2013-10-30 11:37:00,52.0,42.4,30.11,SE,139,0.0,0.0,70,0.00,,,0.00,meteohub,2013-10-30 15:37:00,
2013-10-30 11:42:00,52.3,42.8,30.11,SE,139,0.0,0.0,70,0.00,,,0.00,meteohub,2013-10-30 15:42:00,
2013-10-30 11:47:00,52.5,43.0,30.11,West,276,0.0,0.0,70,0.00,,,0.00,meteohub,2013-10-30 15:47:00,
2013-10-30 11:53:00,52.9,43.3,30.11,West,276,0.0,0.0,70,0.00,,,0.00,meteohub,2013-10-30 15:53:00,
2013-10-30 11:58:00,52.9,43.3,30.11,WSW,249,0.0,0.0,70,0.00,,,0.00,meteohub,2013-10-30 15:58:00,
2013-10-30 12:03:00,52.9,43.7,30.11,WSW,253,0.0,2.0,71,0.00,,,0.00,meteohub,2013-10-30 16:03:00,
2013-10-30 12:08:00,53.1,43.9,30.11,WSW,253,0.0,2.0,71,0.00,,,0.00,meteohub,2013-10-30 16:08:00,
2013-10-30 12:13:00,52.9,43.7,30.11,WSW,253,0.0,2.0,71,0.00,,,0.00,meteohub,2013-10-30 16:13:00,
2013-10-30 12:18:00,52.9,43.7,30.08,West,272,0.0,0.0,71,0.00,,,0.00,meteohub,2013-10-30 16:18:00,
2013-10-30 12:23:00,53.1,43.9,30.08,West,272,0.0,0.0,71,0.00,,,0.00,meteohub,2013-10-30 16:23:00,
2013-10-30 12:28:00,53.1,43.9,30.08,West,272,0.0,0.0,71,0.00,,,0.00,meteohub,2013-10-30 16:28:00,
2013-10-30 12:33:00,53.1,43.9,30.08,SE,145,2.0,0.0,71,0.00,,,0.00,meteohub,2013-10-30 16:33:00,
2013-10-30 12:38:00,53.1,44.2,30.08,SE,145,0.0,3.0,72,0.00,,,0.00,meteohub,2013-10-30 16:38:00,
2013-10-30 12:43:00,53.1,44.2,30.08,SE,145,0.0,3.0,72,0.00,,,0.00,meteohub,2013-10-30 16:43:00,
2013-10-30 12:48:00,53.1,44.2,30.08,SE,145,0.0,3.0,72,0.00,,,0.00,meteohub,2013-10-30 16:48:00,
2013-10-30 12:54:00,53.2,44.8,30.08,SW,234,0.0,3.0,73,0.00,,,0.00,meteohub,2013-10-30 16:54:00,
2013-10-30 12:59:00,53.4,45.0,30.08,WSW,244,0.0,4.0,73,0.00,,,0.00,meteohub,2013-10-30 16:59:00,
2013-10-30 13:04:00,54.0,45.5,30.08,NNW,327,0.0,4.0,73,0.00,,,0.00,meteohub,2013-10-30 17:04:00,
2013-10-30 13:09:00,54.5,46.0,30.08,SSE,157,0.0,4.0,73,0.00,,,0.00,meteohub,2013-10-30 17:09:00,
2013-10-30 13:14:00,54.7,46.2,30.08,SSE,150,0.0,4.0,73,0.00,,,0.00,meteohub,2013-10-30 17:14:00,
2013-10-30 13:19:00,55.0,46.6,30.05,SW,236,0.0,5.0,73,0.00,,,0.00,meteohub,2013-10-30 17:19:00,
2013-10-30 13:24:00,55.2,46.8,30.05,WSW,242,4.0,5.0,73,0.00,,,0.00,meteohub,2013-10-30 17:24:00,
2013-10-30 13:29:00,55.4,46.6,30.05,South,177,3.0,4.0,72,0.00,,,0.00,meteohub,2013-10-30 17:29:00,
2013-10-30 13:34:00,55.6,46.8,30.05,NW,322,4.0,4.0,72,0.00,,,0.00,meteohub,2013-10-30 17:34:00,
2013-10-30 13:39:00,55.9,47.1,30.05,West,266,0.0,4.0,72,0.00,,,0.00,meteohub,2013-10-30 17:39:00,
2013-10-30 13:44:00,56.1,46.8,30.05,NE,54,0.0,4.0,71,0.00,,,0.00,meteohub,2013-10-30 17:44:00,
2013-10-30 13:49:00,55.9,46.8,30.05,WNW,292,2.0,4.0,71,0.00,,,0.00,meteohub,2013-10-30 17:49:00,
2013-10-30 13:55:00,55.9,46.8,30.05,NW,307,0.0,3.0,71,0.00,,,0.00,meteohub,2013-10-30 17:55:00,
2013-10-30 14:00:00,55.8,46.6,30.05,NW,307,0.0,3.0,71,0.00,,,0.00,meteohub,2013-10-30 18:00:00,
2013-10-30 14:05:00,55.6,46.0,30.05,NW,307,0.0,3.0,70,0.00,,,0.00,meteohub,2013-10-30 18:05:00,
2013-10-30 14:10:00,55.4,45.9,30.05,North,353,0.0,3.0,70,0.00,,,0.00,meteohub,2013-10-30 18:10:00,
2013-10-30 14:15:00,55.2,46.0,30.05,North,353,0.0,2.0,71,0.00,,,0.00,meteohub,2013-10-30 18:15:00,
2013-10-30 14:20:00,55.0,45.9,30.05,SE,141,0.0,5.0,71,0.00,,,0.00,meteohub,2013-10-30 18:20:00,
2013-10-30 14:25:00,55.0,46.2,30.05,ENE,59,2.0,5.0,72,0.00,,,0.00,meteohub,2013-10-30 18:25:00,
2013-10-30 14:30:00,55.2,46.4,30.05,NNW,339,0.0,5.0,72,0.00,,,0.00,meteohub,2013-10-30 18:30:00,
2013-10-30 14:35:00,55.2,46.4,30.05,SW,225,0.0,3.0,72,0.00,,,0.00,meteohub,2013-10-30 18:35:00,
2013-10-30 14:40:00,55.4,46.6,30.05,NNE,24,2.0,4.0,72,0.00,,,0.00,meteohub,2013-10-30 18:40:00,
2013-10-30 14:45:00,55.4,46.6,30.05,ENE,73,0.0,4.0,72,0.00,,,0.00,meteohub,2013-10-30 18:45:00,
2013-10-30 14:51:00,55.4,46.6,30.02,NE,56,0.0,3.0,72,0.00,,,0.00,meteohub,2013-10-30 18:51:00,
2013-10-30 14:56:00,55.4,46.6,30.02,NE,56,3.0,3.0,72,0.00,,,0.00,meteohub,2013-10-30 18:56:00,
2013-10-30 15:01:00,55.6,46.8,30.02,East,81,0.0,3.0,72,0.00,,,0.00,meteohub,2013-10-30 19:01:00,
2013-10-30 15:06:00,55.4,46.6,30.02,NNW,330,0.0,3.0,72,0.00,,,0.00,meteohub,2013-10-30 19:06:00,
2013-10-30 15:11:00,55.4,46.6,30.02,NNW,330,0.0,3.0,72,0.00,,,0.00,meteohub,2013-10-30 19:11:00,
2013-10-30 15:16:00,55.2,46.8,30.02,North,357,2.0,3.0,73,0.00,,,0.00,meteohub,2013-10-30 19:16:00,
2013-10-30 15:21:00,55.2,46.4,30.02,North,0,0.0,3.0,72,0.00,,,0.00,meteohub,2013-10-30 19:21:00,
2013-10-30 15:26:00,55.2,46.4,30.02,North,0,0.0,3.0,72,0.00,,,0.00,meteohub,2013-10-30 19:26:00,
2013-10-30 15:31:00,55.2,46.4,30.02,North,0,0.0,4.0,72,0.00,,,0.00,meteohub,2013-10-30 19:31:00,
2013-10-30 15:36:00,55.2,46.4,30.02,South,175,0.0,4.0,72,0.00,,,0.00,meteohub,2013-10-30 19:36:00,
2013-10-30 15:41:00,55.2,46.4,30.02,SSW,205,0.0,4.0,72,0.00,,,0.00,meteohub,2013-10-30 19:41:00,
2013-10-30 15:46:00,55.2,46.4,30.02,South,176,0.0,4.0,72,0.00,,,0.00,meteohub,2013-10-30 19:46:00,
2013-10-30 15:52:00,55.2,46.4,30.02,SE,143,0.0,4.0,72,0.00,,,0.00,meteohub,2013-10-30 19:52:00,
2013-10-30 15:57:00,55.2,46.4,30.02,SE,143,0.0,4.0,72,0.00,,,0.00,meteohub,2013-10-30 19:57:00,
2013-10-30 16:02:00,55.4,46.6,30.02,SSE,151,0.0,4.0,72,0.00,,,0.00,meteohub,2013-10-30 20:02:00,
2013-10-30 16:07:00,55.6,46.4,30.02,SSE,151,0.0,3.0,71,0.00,,,0.00,meteohub,2013-10-30 20:07:00,
2013-10-30 16:12:00,55.8,46.6,30.02,SSE,168,3.0,6.0,71,0.00,,,0.00,meteohub,2013-10-30 20:12:00,
2013-10-30 16:17:00,55.6,46.0,30.02,SSW,192,3.0,6.0,70,0.00,,,0.00,meteohub,2013-10-30 20:17:00,
2013-10-30 16:22:00,55.6,46.0,30.02,SE,144,0.0,8.0,70,0.00,,,0.00,meteohub,2013-10-30 20:22:00,
2013-10-30 16:27:00,55.8,46.0,30.02,SSW,207,0.0,8.0,70,0.00,,,0.00,meteohub,2013-10-30 20:27:00,
2013-10-30 16:32:00,55.8,46.0,30.02,SSE,157,0.0,5.0,70,0.00,,,0.00,meteohub,2013-10-30 20:32:00,
2013-10-30 16:37:00,55.6,46.0,30.02,South,183,3.0,5.0,70,0.00,,,0.00,meteohub,2013-10-30 20:37:00,
2013-10-30 16:42:00,55.4,45.9,30.02,South,182,3.0,4.0,70,0.00,,,0.00,meteohub,2013-10-30 20:42:00,
2013-10-30 16:47:00,55.0,45.5,30.02,SSE,156,2.0,4.0,70,0.00,,,0.00,meteohub,2013-10-30 20:47:00,
2013-10-30 16:52:00,54.9,45.3,30.02,South,178,0.0,4.0,70,0.00,,,0.00,meteohub,2013-10-30 20:52:00,
2013-10-30 16:57:00,54.7,45.1,30.02,South,178,0.0,4.0,70,0.00,,,0.00,meteohub,2013-10-30 20:57:00,
2013-10-30 17:02:00,54.3,45.1,30.02,South,178,0.0,3.0,71,0.00,,,0.00,meteohub,2013-10-30 21:02:00,
2013-10-30 17:07:00,54.1,45.0,30.02,SE,131,0.0,2.0,71,0.00,,,0.00,meteohub,2013-10-30 21:07:00,
2013-10-30 17:12:00,53.8,44.6,30.02,SE,132,0.0,2.0,71,0.00,,,0.00,meteohub,2013-10-30 21:12:00,
2013-10-30 17:17:00,53.4,44.6,30.02,SE,132,0.0,2.0,72,0.00,,,0.00,meteohub,2013-10-30 21:17:00,
2013-10-30 17:22:00,53.1,44.2,30.02,SE,132,0.0,0.0,72,0.00,,,0.00,meteohub,2013-10-30 21:22:00,
2013-10-30 17:27:00,52.9,44.1,30.02,SE,132,0.0,0.0,72,0.00,,,0.00,meteohub,2013-10-30 21:27:00,
2013-10-30 17:32:00,52.3,43.9,30.02,SE,132,0.0,0.0,73,0.00,,,0.00,meteohub,2013-10-30 21:32:00,
2013-10-30 17:37:00,52.2,43.7,30.02,SE,132,0.0,0.0,73,0.00,,,0.00,meteohub,2013-10-30 21:37:00,
2013-10-30 17:42:00,51.8,43.7,30.02,SE,132,0.0,0.0,74,0.00,,,0.00,meteohub,2013-10-30 21:42:00,
2013-10-30 17:47:00,51.4,43.7,30.02,SE,132,0.0,0.0,75,0.00,,,0.00,meteohub,2013-10-30 21:47:00,
2013-10-30 17:52:00,51.1,43.5,30.02,SE,132,0.0,0.0,75,0.00,,,0.00,meteohub,2013-10-30 21:52:00,
2013-10-30 17:57:00,50.5,43.0,30.02,SE,132,0.0,0.0,75,0.00,,,0.00,meteohub,2013-10-30 21:57:00,
2013-10-30 18:02:00,50.2,43.0,30.02,SE,131,0.0,0.0,76,0.00,,,0.00,meteohub,2013-10-30 22:02:00,
2013-10-30 18:07:00,50.0,43.2,30.02,SE,132,0.0,0.0,77,0.00,,,0.00,meteohub,2013-10-30 22:07:00,
2013-10-30 18:12:00,49.6,43.0,30.02,SE,132,0.0,0.0,78,0.00,,,0.00,meteohub,2013-10-30 22:12:00,
2013-10-30 18:18:00,49.5,43.2,30.02,SE,132,0.0,0.0,79,0.00,,,0.00,meteohub,2013-10-30 22:18:00,
2013-10-30 18:23:00,49.3,43.3,30.02,SE,132,0.0,0.0,80,0.00,,,0.00,meteohub,2013-10-30 22:23:00,
2013-10-30 18:28:00,48.7,43.2,30.02,SE,132,0.0,0.0,81,0.00,,,0.00,meteohub,2013-10-30 22:28:00,
2013-10-30 18:33:00,48.6,43.0,30.02,SE,132,0.0,0.0,81,0.00,,,0.00,meteohub,2013-10-30 22:33:00,
2013-10-30 18:38:00,48.6,43.7,30.02,SE,132,0.0,0.0,83,0.00,,,0.00,meteohub,2013-10-30 22:38:00,
2013-10-30 18:43:00,48.6,43.7,30.02,SE,132,0.0,0.0,83,0.00,,,0.00,meteohub,2013-10-30 22:43:00,
2013-10-30 18:48:00,48.4,43.7,30.02,SE,132,0.0,0.0,84,0.00,,,0.00,meteohub,2013-10-30 22:48:00,
2013-10-30 18:53:00,48.2,43.9,30.02,SE,132,0.0,0.0,85,0.00,,,0.00,meteohub,2013-10-30 22:53:00,
2013-10-30 18:59:00,48.2,43.9,30.02,SE,132,0.0,0.0,85,0.00,,,0.00,meteohub,2013-10-30 22:59:00,
2013-10-30 19:04:00,48.2,44.2,30.05,SE,132,0.0,0.0,86,0.00,,,0.00,meteohub,2013-10-30 23:04:00,
2013-10-30 19:09:00,48.0,44.1,30.05,SE,132,0.0,0.0,86,0.00,,,0.00,meteohub,2013-10-30 23:09:00,
2013-10-30 19:14:00,47.8,44.2,30.05,SE,132,0.0,0.0,87,0.00,,,0.00,meteohub,2013-10-30 23:14:00,
2013-10-30 19:19:00,47.8,44.2,30.05,SE,132,0.0,0.0,87,0.00,,,0.00,meteohub,2013-10-30 23:19:00,
2013-10-30 19:24:00,47.8,44.4,30.05,SE,132,0.0,0.0,88,0.00,,,0.00,meteohub,2013-10-30 23:24:00,
2013-10-30 19:29:00,47.8,44.4,30.05,SE,132,0.0,0.0,88,0.00,,,0.00,meteohub,2013-10-30 23:29:00,
2013-10-30 19:34:00,47.7,44.6,30.05,SE,132,0.0,0.0,89,0.00,,,0.00,meteohub,2013-10-30 23:34:00,
2013-10-30 19:40:00,47.7,44.6,30.05,SE,132,0.0,0.0,89,0.00,,,0.00,meteohub,2013-10-30 23:40:00,
2013-10-30 19:45:00,47.5,44.8,30.05,SE,132,0.0,0.0,90,0.00,,,0.00,meteohub,2013-10-30 23:45:00,
2013-10-30 19:50:00,47.5,44.8,30.05,SE,132,0.0,0.0,90,0.00,,,0.00,meteohub,2013-10-30 23:50:00,
2013-10-30 19:55:00,47.5,45.0,30.05,SE,132,0.0,0.0,91,0.00,,,0.00,meteohub,2013-10-30 23:55:00,
2013-10-30 20:00:00,47.5,45.0,30.05,SE,132,0.0,0.0,91,0.00,,,0.00,meteohub,2013-10-31 00:00:00,
2013-10-30 20:05:00,47.5,45.0,30.05,SE,132,0.0,0.0,91,0.00,,,0.00,meteohub,2013-10-31 00:05:00,
2013-10-30 20:11:00,47.7,45.5,30.05,SE,132,0.0,0.0,92,0.00,,,0.00,meteohub,2013-10-31 00:11:00,
2013-10-30 20:16:00,47.7,45.5,30.05,SE,132,0.0,0.0,92,0.00,,,0.00,meteohub,2013-10-31 00:16:00,
2013-10-30 20:21:00,47.5,45.3,30.05,SE,132,0.0,0.0,92,0.00,,,0.00,meteohub,2013-10-31 00:21:00,
2013-10-30 20:26:00,47.7,45.5,30.05,SE,132,0.0,0.0,92,0.00,,,0.00,meteohub,2013-10-31 00:26:00,
2013-10-30 20:31:00,48.0,46.0,30.05,SE,132,0.0,0.0,93,0.00,,,0.00,meteohub,2013-10-31 00:31:00,
2013-10-30 20:36:00,48.2,46.2,30.05,SE,132,0.0,0.0,93,0.00,,,0.00,meteohub,2013-10-31 00:36:00,
2013-10-30 20:41:00,48.2,46.2,30.05,SE,132,0.0,0.0,93,0.00,,,0.00,meteohub,2013-10-31 00:41:00,
2013-10-30 20:46:00,48.0,46.4,30.05,SE,132,0.0,0.0,94,0.00,,,0.00,meteohub,2013-10-31 00:46:00,
2013-10-30 20:51:00,47.8,46.2,30.05,SE,132,0.0,3.0,94,0.00,,,0.00,meteohub,2013-10-31 00:51:00,
2013-10-30 20:57:00,47.7,46.0,30.05,SE,132,0.0,3.0,94,0.00,,,0.00,meteohub,2013-10-31 00:57:00,
2013-10-30 21:02:00,47.3,45.7,30.05,SE,132,0.0,3.0,94,0.00,,,0.00,meteohub,2013-10-31 01:02:00,
2013-10-30 21:07:00,46.9,45.3,30.05,SE,132,0.0,0.0,94,0.00,,,0.00,meteohub,2013-10-31 01:07:00,
2013-10-30 21:12:00,46.6,45.0,30.05,SE,132,0.0,0.0,94,0.00,,,0.00,meteohub,2013-10-31 01:12:00,
2013-10-30 21:17:00,46.2,44.6,30.05,SE,132,0.0,0.0,94,0.00,,,0.00,meteohub,2013-10-31 01:17:00,
2013-10-30 21:22:00,46.0,44.4,30.05,SE,132,0.0,0.0,94,0.00,,,0.00,meteohub,2013-10-31 01:22:00,
2013-10-30 21:27:00,45.9,44.2,30.05,SE,132,0.0,0.0,94,0.00,,,0.00,meteohub,2013-10-31 01:27:00,
2013-10-30 21:32:00,46.0,44.4,30.05,SE,131,0.0,0.0,94,0.00,,,0.00,meteohub,2013-10-31 01:32:00,
2013-10-30 21:37:00,46.0,44.6,30.05,SE,132,0.0,0.0,95,0.00,,,0.00,meteohub,2013-10-31 01:37:00,
2013-10-30 21:42:00,46.0,44.6,30.05,SE,132,0.0,0.0,95,0.00,,,0.00,meteohub,2013-10-31 01:42:00,
2013-10-30 21:47:00,46.0,44.6,30.05,SE,132,0.0,0.0,95,0.00,,,0.00,meteohub,2013-10-31 01:47:00,
2013-10-30 21:52:00,46.0,44.6,30.05,SE,132,0.0,2.0,95,0.00,,,0.00,meteohub,2013-10-31 01:52:00,
2013-10-30 21:57:00,46.2,45.1,30.05,SE,132,0.0,2.0,96,0.00,,,0.00,meteohub,2013-10-31 01:57:00,
2013-10-30 22:02:00,46.2,45.1,30.05,SE,132,0.0,2.0,96,0.00,,,0.00,meteohub,2013-10-31 02:02:00,
2013-10-30 22:08:00,46.0,45.0,30.05,SE,132,0.0,0.0,96,0.00,,,0.00,meteohub,2013-10-31 02:08:00,
2013-10-30 22:13:00,45.9,44.8,30.05,SE,132,0.0,0.0,96,0.00,,,0.00,meteohub,2013-10-31 02:13:00,
2013-10-30 22:18:00,45.7,44.6,30.08,SE,132,0.0,0.0,96,0.00,,,0.00,meteohub,2013-10-31 02:18:00,
2013-10-30 22:23:00,45.7,44.6,30.08,SE,132,0.0,0.0,96,0.00,,,0.00,meteohub,2013-10-31 02:23:00,
2013-10-30 22:28:00,45.9,44.8,30.08,SE,132,0.0,0.0,96,0.00,,,0.00,meteohub,2013-10-31 02:28:00,
2013-10-30 22:33:00,45.9,44.8,30.08,SE,132,0.0,0.0,96,0.00,,,0.00,meteohub,2013-10-31 02:33:00,
2013-10-30 22:38:00,45.9,44.8,30.08,SE,132,0.0,0.0,96,0.00,,,0.00,meteohub,2013-10-31 02:38:00,
2013-10-30 22:44:00,46.0,45.0,30.08,SE,132,0.0,0.0,96,0.00,,,0.00,meteohub,2013-10-31 02:44:00,
2013-10-30 22:49:00,45.9,44.8,30.08,SE,132,0.0,0.0,96,0.00,,,0.00,meteohub,2013-10-31 02:49:00,
2013-10-30 22:54:00,45.7,45.0,30.08,SE,132,0.0,0.0,97,0.00,,,0.00,meteohub,2013-10-31 02:54:00,
2013-10-30 22:59:00,45.5,44.8,30.08,SE,132,0.0,0.0,97,0.00,,,0.00,meteohub,2013-10-31 02:59:00,
2013-10-30 23:02:00,45.3,44.6,30.05,SE,132,0.0,0.0,97,0.00,,,0.00,meteohub,2013-10-31 03:02:00,
2013-10-30 23:07:00,45.1,44.4,30.05,SE,132,0.0,0.0,97,0.00,,,0.00,meteohub,2013-10-31 03:07:00,
2013-10-30 23:12:00,44.8,44.1,30.05,SE,132,0.0,0.0,97,0.00,,,0.00,meteohub,2013-10-31 03:12:00,
2013-10-30 23:17:00,44.6,43.9,30.05,SE,132,0.0,0.0,97,0.00,,,0.00,meteohub,2013-10-31 03:17:00,
2013-10-30 23:22:00,44.4,43.7,30.05,SE,132,0.0,0.0,97,0.00,,,0.00,meteohub,2013-10-31 03:22:00,
2013-10-30 23:27:00,44.6,43.9,30.05,SE,132,0.0,0.0,97,0.00,,,0.00,meteohub,2013-10-31 03:27:00,
2013-10-30 23:32:00,44.6,43.9,30.05,SE,132,0.0,0.0,97,0.00,,,0.00,meteohub,2013-10-31 03:32:00,
2013-10-30 23:37:00,44.2,43.5,30.05,SE,132,0.0,0.0,97,0.00,,,0.00,meteohub,2013-10-31 03:37:00,
2013-10-30 23:42:00,44.1,43.3,30.05,SE,132,0.0,0.0,97,0.00,,,0.00,meteohub,2013-10-31 03:42:00,
2013-10-30 23:47:00,44.1,43.3,30.05,SE,132,0.0,0.0,97,0.00,,,0.00,meteohub,2013-10-31 03:47:00,
2013-10-30 23:52:00,44.1,43.3,30.05,SE,132,0.0,0.0,97,0.00,,,0.00,meteohub,2013-10-31 03:52:00,
2013-10-30 23:57:00,44.2,43.5,30.05,SE,132,0.0,0.0,97,0.00,,,0.00,meteohub,2013-10-31 03:57:00,